Location: Unspecified
(0.0000°N, 0.0000°E)
Time: 22:31:53
(UTC+00:00)

PAYLOAD G - Pass Details

Date: 04 August 2024
Orbit: 808 x 820 km, 98.7° (Epoch: 12 September)

Event Time Altitude Azimuth Distance (km) Brightness Sun altitude
Rises 18:25:26 0° 184° (S) 3,324 ? -4.6°
Reaches altitude 10° 18:27:56 10° 192° (SSW) 2,390 ? -5.2°
Maximum altitude 18:32:43 35° 257° (WSW) 1,276 ? -6.4°
Drops below altitude 10° 18:37:29 10° 322° (NW) 2,385 ? -7.5°
Sets 18:40:00 0° 331° (NNW) 3,315 ? -8.1°
